BRICSAT2 (NO-103) (44355 NORAD) Tracking and Keplerian Element Data

This shows tracking and keplerian element data for the satellite.

Feedback or suggestion? Click here.




ElementValue
Catalog44355
NameBRICSAT2 (NO-103)
Epoch Orbit15707
Epoch Day110.24609159
Epoch Year2022
RAAN82.7172
Inclination28.5075
Eccentricity0.0016307
Argument of Perigee255.7935
Mean Anonmoly104.0877
Mean Motion16.36779689
Decay Rate0.09797144
L11 44355U 19036S 22110.24609159 .09797144 -77191-5 93620-3 0 9997
L22 44355 28.5075 82.7172 0016307 255.7935 104.0877 16.36779689157079



Live tracking and technical data element details for BRICSAT2 (NO-103) (NORAD 44355). BRICSAT2 (NO-103) can be tracked NOW for your location showing map with azimuth and elevation plus other details from your city location.







IsCatalogInMostPopularTable: catalog: 44355, numindb: 262
Update: records affected: 1



GetName: 44355 BRICSAT2 (NO-103)

Hit Count: updated at: Fri, 02 Dec 2022 12:15:40 GMT